[[{"header":{"parameterUnit":"m.s-1","parameterCategory":1,"la1":30.2991,"la2":30.254,"lo1":-89.0895,"lo2":-89.0444,"dy":0.0017,"dx":0.0017,"nx":28,"ny":28,"refTime":"2024-06-22T03:00:00:Z","depth":0,"parameterNumber":2,"parameterNumberName":"U-component_of_WINDS"},"data":[0,0,0,0,0,0,0,0,0,0,0,0,0,0,0,0,0,0,0,0,0,0,0,0,0,0,0,0,0,0,0,0,0,0,0,0,0,0,0,0,0,0,0,0,0,0,0,0,0,0,0,0,0,0,0,0,0,0,-0.6852,-0.6851,0,-0.6764,-0.6763,-0.6762,-0.6701,-0.6701,-0.67,-0.67,-0.6609,-0.6607,-0.6605,0,0,0,0,0,0,0,0,0,0,0,0,0,-0.6968,-0.6966,-0.6852,-0.6851,-0.685,-0.6764,-0.6763,-0.6762,-0.6701,-0.67,-0.67,-0.6699,-0.661,-0.6607,-0.6605,0,0,0,0,0,0,0,0,0,0,0,0,0,-0.6902,-0.6965,-0.6852,-0.6809,-0.6804,-0.6764,-0.6763,-0.6761,-0.6701,-0.67,-0.67,-0.6699,-0.661,-0.6608,-0.6605,-0.66,0,0,-0.6596,-0.6594,0,0,0,0,0,0,0,0,-0.6906,-0.6898,-0.6817,-0.6812,-0.6807,-0.6743,-0.677,-0.6707,-0.6701,-0.674,-0.67,-0.6699,-0.6654,-0.6647,-0.6632,-0.6596,-0.6592,-0.6595,-0.6593,-0.6592,-0.6591,0,0,0,0,0,0,0,-0.6911,-0.6902,-0.6817,-0.6815,-0.6809,-0.6794,-0.6784,-0.6758,-0.6702,-0.6737,-0.6732,-0.6723,-0.6651,-0.6635,-0.663,-0.6591,-0.6595,-0.6593,-0.6591,-0.659,-0.6547,-0.6548,0,0,0,0,0,0,-0.6922,-0.6906,-0.682,-0.6814,-0.6856,-0.6793,-0.6782,-0.6764,-0.6702,-0.6692,-0.6723,-0.672,-0.6641,-0.6633,-0.6626,-0.6618,-0.6592,-0.6589,-0.6588,-0.6546,-0.6547,-0.6548,0,0,0,0,0,0,-0.6925,-0.6915,-0.6823,-0.6859,-0.6846,-0.6792,-0.6772,-0.6763,-0.6747,-0.6692,-0.6682,-0.6718,-0.664,-0.6631,-0.6607,-0.6614,-0.6588,-0.6585,-0.6546,-0.6547,-0.6547,-0.66,0,0,0,0,0,0,-0.6928,-0.6916,-0.6914,-0.6859,-0.6844,-0.6806,-0.6773,-0.6761,-0.6742,-0.6737,-0.6684,-0.6674,-0.6639,-0.6612,-0.6604,-0.6609,-0.6583,-0.6545,-0.6546,-0.6547,-0.6598,-0.6603,-0.6607,0,0,0,0,0,-0.6933,-0.6932,-0.6914,-0.6904,-0.684,-0.6806,-0.6798,-0.6757,-0.6743,-0.674,-0.6705,-0.6676,-0.6614,-0.661,-0.6601,-0.6605,-0.6544,-0.6546,-0.6547,-0.6596,-0.6602,-0.6607,0,0,0,0,0,0,-0.6988,-0.6924,-0.6903,-0.6885,-0.6852,-0.6796,-0.6791,-0.6765,-0.6735,-0.6731,-0.6682,-0.667,-0.6653,-0.6626,-0.6623,-0.6598,-0.6576,-0.6575,-0.6616,-0.6621,-0.6626,-0.6633,-0.6581,0,0,0,0,0,-0.6999,-0.6976,-0.6921,-0.691,-0.6895,-0.6846,-0.683,-0.6801,-0.6765,-0.675,-0.6714,-0.6679,-0.6652,-0.6635,-0.6607,-0.6594,-0.6582,-0.6592,-0.6597,-0.6601,-0.6601,-0.6593,-0.6597,-0.6553,-0.6553,-0.6553,0,0,-0.7019,-0.6981,-0.697,-0.6921,-0.6891,-0.687,-0.6835,-0.6813,-0.6797,-0.6747,-0.6723,-0.6695,-0.6653,-0.6635,-0.6626,-0.6613,-0.6611,-0.6603,-0.6607,-0.6605,-0.6595,-0.66,-0.6603,-0.6554,-0.6553,-0.6553,0,0,-0.7046,-0.7015,-0.7003,-0.6975,-0.6931,-0.6899,-0.6896,-0.6845,-0.6825,-0.68,-0.6762,-0.6742,-0.6696,-0.6668,-0.6648,-0.6666,-0.6639,-0.6658,-0.6683,-0.6676,-0.668,-0.6683,-0.669,-0.6693,-0.6659,-0.6659,-0.6659,0,-0.7078,-0.7044,-0.7,-0.6981,-0.6961,-0.6915,-0.6903,-0.6877,-0.6827,-0.6814,-0.6801,-0.6743,-0.6711,-0.6687,-0.6691,-0.6676,-0.6672,-0.6664,-0.6683,-0.6685,-0.6687,-0.6693,-0.6696,-0.6661,-0.6661,-0.6661,-0.6661,0,-0.7085,-0.7062,-0.7057,-0.701,-0.6989,-0.6974,-0.6928,-0.6912,-0.6886,-0.6855,-0.6831,-0.6792,-0.6756,-0.6748,-0.6721,-0.672,-0.6713,-0.6692,-0.6669,-0.6695,-0.67,-0.6702,-0.6665,-0.6664,-0.6664,-0.6663,0,0,-0.7144,-0.7074,-0.7073,-0.7052,-0.7001,-0.6982,-0.6965,-0.693,-0.6917,-0.6884,-0.6869,-0.6831,-0.6812,-0.6789,-0.6759,-0.6753,-0.677,-0.6732,-0.6731,-0.6741,-0.6767,-0.6784,-0.6787,-0.6752,-0.6752,-0.6752,-0.6771,0,-0.7164,-0.713,-0.7091,-0.7071,-0.705,-0.7007,-0.6992,-0.6959,-0.693,-0.6908,-0.6876,-0.6851,-0.6826,-0.6813,-0.6804,-0.677,-0.6775,-0.6768,-0.6738,-0.6737,-0.675,-0.679,-0.6807,-0.6826,-0.6772,-0.6773,-0.6773,0,-0.7183,-0.7152,-0.7131,-0.7082,-0.7072,-0.7059,-0.7024,-0.7003,-0.6966,-0.6945,-0.6921,-0.6889,-0.6869,-0.6848,-0.682,-0.6817,-0.6802,-0.6783,-0.6783,-0.6779,-0.6757,-0.6788,-0.6831,-0.6835,-0.6775,-0.6775,-0.6775,0,-0.7229,-0.7183,-0.7164,-0.7147,-0.709,-0.7082,-0.7058,-0.702,-0.7001,-0.6971,-0.6959,-0.6926,-0.6908,-0.6884,-0.6845,-0.6833,-0.6821,-0.6797,-0.6804,-0.6805,-0.6804,-0.6805,-0.6847,-0.6794,-0.6794,-0.6794,-0.6794,0,-0.7256,-0.7245,-0.7185,-0.7173,-0.7159,-0.7114,-0.7102,-0.7074,-0.704,-0.7023,-0.6983,-0.6968,-0.6916,-0.6895,-0.6864,-0.6846,-0.6838,-0.6821,-0.6813,-0.6825,-0.6828,-0.6815,-0.6813,-0.6794,-0.6794,-0.6794,-0.6794,0,-0.7306,-0.7265,-0.7242,-0.719,-0.7177,-0.7169,-0.7125,-0.7112,-0.7081,-0.706,-0.7052,-0.7004,-0.6977,-0.6935,-0.6895,-0.6874,-0.6862,-0.6848,-0.6875,-0.687,-0.688,-0.688,-0.6916,-0.6919,-0.6864,-0.6864,-0.6865,0,-0.7326,-0.7317,-0.7264,-0.7249,-0.7227,-0.7204,-0.7185,-0.7141,-0.7123,-0.708,-0.7073,-0.7043,-0.7016,-0.6975,-0.6936,-0.6906,-0.6891,-0.6906,-0.6887,-0.6899,-0.6893,-0.6894,-0.6893,-0.6911,-0.6912,-0.6913,-0.6913,0,-0.7367,-0.7347,-0.7322,-0.7289,-0.7268,-0.7241,-0.7211,-0.7202,-0.7151,-0.7133,-0.7105,-0.7084,-0.7044,-0.7015,-0.6979,-0.6955,-0.6926,-0.692,-0.692,-0.6932,-0.6949,-0.6941,-0.6888,-0.6919,-0.6919,-0.6918,-0.6918,-0.6918,-0.7403,-0.7393,-0.7354,-0.7327,-0.73,-0.7274,-0.726,-0.7228,-0.7203,-0.7167,-0.7142,-0.7116,-0.7079,-0.7029,-0.7005,-0.6984,-0.6972,-0.6972,-0.6972,-0.6973,-0.6978,-0.6952,-0.6978,-0.6977,-0.6977,-0.6977,-0.6977,0,-0.7442,-0.7415,-0.7391,-0.7351,-0.733,-0.7305,-0.7271,-0.7255,-0.7233,-0.7201,-0.7176,-0.7144,-0.7116,-0.7075,-0.7044,-0.7035,-0.7021,-0.7028,-0.7029,-0.7024,-0.699,-0.6994,-0.704,-0.704,-0.704,-0.704,-0.704,-0.704,-0.746,-0.7442,-0.7418,-0.7386,-0.7359,-0.7333,-0.7316,-0.7292,-0.7266,-0.7233,-0.7209,-0.7183,-0.7147,-0.7113,-0.7086,-0.7075,-0.7066,-0.7077,-0.7062,-0.7032,-0.7026,-0.7021,-0.7024,-0.7076,-0.7076,-0.7098,-0.7098,-0.7098]},{"header":{"parameterUnit":"m.s-1","parameterCategory":1,"la1":30.2991,"la2":30.254,"lo1":-89.0895,"lo2":-89.0444,"dy":0.0017,"dx":0.0017,"nx":28,"ny":28,"refTime":"2024-06-22T03:00:00:Z","depth":0,"parameterNumber":3,"parameterNumberName":"V-component_of_WINDS"},"data":[0,0,0,0,0,0,0,0,0,0,0,0,0,0,0,0,0,0,0,0,0,0,0,0,0,0,0,0,0,0,0,0,0,0,0,0,0,0,0,0,0,0,0,0,0,0,0,0,0,0,0,0,0,0,0,0,0,0,3.4885,3.4885,0,3.4873,3.4873,3.4872,3.4853,3.4852,3.4852,3.4851,3.4838,3.4838,3.4838,0,0,0,0,0,0,0,0,0,0,0,0,0,3.489,3.489,3.4885,3.4884,3.4884,3.4873,3.4873,3.4872,3.4853,3.4852,3.4852,3.4851,3.4838,3.4838,3.4838,0,0,0,0,0,0,0,0,0,0,0,0,0,3.4884,3.489,3.4885,3.4873,3.4872,3.4873,3.4873,3.4872,3.4853,3.4852,3.4852,3.4851,3.4838,3.4838,3.4838,3.4849,0,0,3.4838,3.4838,0,0,0,0,0,0,0,0,3.4884,3.4884,3.4875,3.4874,3.4873,3.4864,3.487,3.4865,3.4853,3.486,3.4851,3.4851,3.4847,3.4846,3.4845,3.4849,3.4848,3.4838,3.4838,3.4838,3.4838,0,0,0,0,0,0,0,3.4885,3.4884,3.488,3.4875,3.4873,3.4868,3.4867,3.4869,3.4857,3.4859,3.4858,3.4857,3.4846,3.4845,3.4845,3.4848,3.4838,3.4838,3.4838,3.4838,3.486,3.4861,0,0,0,0,0,0,3.4887,3.4885,3.488,3.488,3.4877,3.4869,3.4867,3.4867,3.4857,3.4855,3.4857,3.4856,3.4846,3.4845,3.4844,3.4857,3.4838,3.4838,3.4838,3.486,3.486,3.4861,0,0,0,0,0,0,3.4887,3.4887,3.4881,3.4882,3.4881,3.4869,3.4869,3.4867,3.4866,3.4855,3.4853,3.4858,3.4845,3.4844,3.4848,3.4856,3.4838,3.4838,3.4859,3.486,3.4861,3.4881,0,0,0,0,0,0,3.4887,3.4887,3.4891,3.4882,3.4881,3.4885,3.487,3.4867,3.4866,3.4864,3.4856,3.4854,3.4845,3.4849,3.4848,3.4856,3.4838,3.4858,3.4859,3.486,3.488,3.4883,3.4885,0,0,0,0,0,3.4888,3.4897,3.4891,3.4891,3.4885,3.4886,3.4885,3.4875,3.4867,3.4871,3.4864,3.4854,3.4855,3.4849,3.4849,3.4856,3.4858,3.4859,3.486,3.4879,3.4882,3.4885,0,0,0,0,0,0,3.4906,3.4895,3.4889,3.4896,3.4892,3.4882,3.4887,3.4879,3.4876,3.4875,3.4862,3.486,3.4866,3.4861,3.4855,3.4866,3.4855,3.4856,3.4869,3.4872,3.4875,3.4876,3.4838,0,0,0,0,0,3.4911,3.4913,3.4903,3.491,3.4908,3.4898,3.4898,3.489,3.4886,3.4884,3.4877,3.4873,3.4872,3.4872,3.4871,3.4879,3.4877,3.4884,3.4887,3.4889,3.489,3.4895,3.4898,3.4865,3.4865,3.4865,0,0,3.4922,3.4916,3.4917,3.4914,3.491,3.4911,3.4897,3.4899,3.49,3.4884,3.4887,3.4883,3.4877,3.4883,3.4886,3.488,3.4899,3.4891,3.4893,3.4893,3.4896,3.49,3.4902,3.4866,3.4866,3.4866,0,0,3.4941,3.4937,3.4942,3.4939,3.4933,3.4927,3.4928,3.492,3.4916,3.492,3.4908,3.4909,3.4908,3.4905,3.4903,3.4922,3.4913,3.4922,3.4936,3.4941,3.4943,3.4945,3.4952,3.4955,3.4924,3.4924,3.4924,0,3.4954,3.4956,3.4946,3.4949,3.4948,3.4934,3.494,3.4937,3.4931,3.4931,3.4924,3.4923,3.4919,3.4924,3.4929,3.4928,3.4929,3.4923,3.4944,3.4946,3.4948,3.4954,3.4957,3.4925,3.4925,3.4925,3.4924,0,3.4973,3.4974,3.498,3.4975,3.4974,3.4979,3.4969,3.497,3.4963,3.4957,3.4961,3.4955,3.4952,3.4953,3.4946,3.4958,3.4954,3.4946,3.4934,3.4952,3.4958,3.496,3.4926,3.4926,3.4926,3.4925,0,0,3.5003,3.4993,3.4995,3.4993,3.4987,3.4988,3.4992,3.499,3.4991,3.4988,3.499,3.4991,3.4983,3.4981,3.4974,3.4978,3.4994,3.4969,3.4968,3.4974,3.5007,3.5013,3.5016,3.4988,3.4988,3.4989,3.5007,0,3.502,3.5027,3.5018,3.5026,3.5028,3.5015,3.5019,3.5015,3.501,3.501,3.5005,3.5005,3.4995,3.4994,3.4997,3.4991,3.5,3.499,3.499,3.499,3.4992,3.5019,3.5025,3.5043,3.5009,3.501,3.501,0,3.5042,3.504,3.5049,3.5042,3.5043,3.5046,3.5044,3.5045,3.504,3.5036,3.5035,3.5026,3.503,3.5019,3.5023,3.5016,3.5016,3.5013,3.5014,3.5013,3.5001,3.5019,3.5048,3.5051,3.5013,3.5013,3.5013,0,3.5063,3.5063,3.5068,3.5067,3.5059,3.5062,3.5059,3.5054,3.5054,3.5052,3.5052,3.5051,3.505,3.5049,3.504,3.5033,3.5046,3.5034,3.5043,3.5043,3.5046,3.5045,3.5075,3.5046,3.5046,3.5046,3.5046,0,3.5083,3.5089,3.5077,3.508,3.5087,3.5077,3.5083,3.5079,3.5075,3.5077,3.5066,3.5069,3.5057,3.5058,3.5052,3.5057,3.5056,3.5053,3.5051,3.5054,3.5054,3.5053,3.5052,3.5047,3.5047,3.5046,3.5046,0,3.5107,3.51,3.5105,3.5098,3.5096,3.5101,3.5095,3.5098,3.5092,3.5095,3.5095,3.5087,3.5087,3.5079,3.5078,3.5073,3.5081,3.5077,3.5083,3.5081,3.509,3.509,3.512,3.5124,3.5093,3.5093,3.5093,0,3.5121,3.5125,3.5119,3.5119,3.5117,3.5119,3.5119,3.5109,3.511,3.5106,3.5109,3.5109,3.5108,3.511,3.5104,3.5103,3.5099,3.511,3.5099,3.5102,3.5099,3.5099,3.5099,3.5112,3.5112,3.5113,3.5113,0,3.5145,3.5142,3.5142,3.5141,3.5142,3.5141,3.5139,3.514,3.513,3.5131,3.5132,3.5132,3.5131,3.5131,3.513,3.5126,3.5118,3.5117,3.5119,3.5121,3.5124,3.5123,3.5089,3.5116,3.5116,3.5115,3.5115,3.5115,3.5164,3.5167,3.5164,3.5165,3.5163,3.5162,3.5164,3.5159,3.516,3.5159,3.5153,3.5155,3.5152,3.5149,3.5147,3.5148,3.5143,3.5145,3.5146,3.5147,3.5149,3.5124,3.5148,3.5148,3.5148,3.5147,3.5147,0,3.5188,3.5185,3.5186,3.5185,3.5186,3.5178,3.5176,3.5177,3.5179,3.5177,3.5177,3.5178,3.5179,3.5173,3.5173,3.5175,3.5171,3.5175,3.5175,3.5174,3.5153,3.5152,3.5178,3.5178,3.5178,3.5178,3.5178,3.5178,3.5201,3.5206,3.5202,3.5206,3.5204,3.5206,3.5205,3.5204,3.5202,3.5205,3.5205,3.5201,3.5198,3.5197,3.5197,3.5195,3.5196,3.5201,3.5198,3.5179,3.5176,3.5173,3.5171,3.5201,3.5201,3.5219,3.5219,3.5219]}]]